EW4806 Weather Reports


Display with metric or nautical units.
time (UTC)temp
F
wind
direction
speed
MPH
gust
MPH
rain 1hr
in
rain 24hr
in
rain mn
in
humidity
%
barometer
mb
20260509023805 74 290 1.0 7.0 0.00 0.00 0.00 37 1018.1
20260509022306 74 299 1.0 7.0 0.00 0.00 0.00 36 1017.9
20260509020804 75 322 1.0 9.0 0.00 0.00 0.00 34 1017.6
20260509015306 76 340 1.0 10.0 0.00 0.00 0.00 32 1017.5
20260509014502 77 277 2.0 9.0 0.00 0.00 0.00 30 1017.1
20260509012306 78 327 2.0 11.0 0.00 0.00 0.00 29 1017.0
20260509010802 78 336 1.0 6.0 0.00 0.00 0.00 29 1017.1
20260509005306 79 293 1.0 12.0 0.00 0.00 0.00 28 1017.1
20260509003803 79 321 1.0 10.0 0.00 0.00 0.00 28 1017.1
20260509002306 80 335 1.0 8.0 0.00 0.00 0.00 26 1017.1
20260509000802 80 339 1.0 7.0 0.00 0.00 0.00 23 1017.0
20260509000712 80 248 1.0 4.0 0.00 0.00 0.00 20 1017.2
20260508233802 80 322 1.0 4.0 0.00 0.00 0.00 21 1017.3
20260508232307 80 267 1.0 9.0 0.00 0.00 0.00 21 1017.5
20260508231506 79 330 1.0 7.0 0.00 0.00 0.00 21 1017.6
20260508225300 79 280 1.0 7.0 0.00 0.00 0.00 21 1017.8
20260508223800 79 172 0.0 7.0 0.00 0.00 0.00 21 1017.9
20260508223648 79 326 0.0 9.0 0.00 0.00 0.00 21 1018.1
20260508222841 78 287 0.0 1.0 0.00 0.00 0.00 22 1018.2
20260508215257 78 281 1.0 7.0 0.00 0.00 0.00 21 1018.4
20260508214504 78 293 0.0 2.0 0.00 0.00 0.00 19 1018.5
20260508212956 77 189 0.0 0.0 0.00 0.00 0.00 20 1018.5
20260508210754 77 283 0.0 2.0 0.00 0.00 0.00 19 1018.6
20260508205253 77 268 0.0 9.0 0.00 0.00 0.00 19 1018.7
20260508203752 76 255 0.0 4.0 0.00 0.00 0.00 19 1018.7
20260508202251 76 325 0.0 6.0 0.00 0.00 0.00 18 1019.0
20260508201449 75 276 0.0 2.0 0.00 0.00 0.00 20 1018.9
20260508195250 75 334 0.0 2.0 0.00 0.00 0.00 16 1019.1
20260508193748 73 278 0.0 6.0 0.00 0.00 0.00 17 1019.4
20260508192248 72 269 0.0 2.0 0.00 0.00 0.00 22 1019.6
20260508190747 71 277 0.0 1.0 0.00 0.00 0.00 26 1019.8
20260508185247 69 285 0.0 2.0 0.00 0.00 0.00 29 1019.8
20260508183748 68 268 0.0 1.0 0.00 0.00 0.00 32 1019.9
20260508182248 68 272 0.0 2.0 0.00 0.00 0.00 32 1020.1
20260508180745 66 302 0.0 1.0 0.00 0.00 0.00 36 1020.1
20260508175243 65 339 0.0 2.0 0.00 0.00 0.00 42 1020.2
20260508174435 64 292 0.0 2.0 0.00 0.00 0.00 41 1020.4
20260508172239 63 292 0.0 1.0 0.00 0.00 0.00 47 1020.5
20260508170739 62 267 0.0 0.0 0.00 0.00 0.00 44 1020.5
20260508165933 61 257 0.0 2.0 0.00 0.00 0.00 50 1020.4
20260508163740 60 268 0.0 0.0 0.00 0.00 0.00 52 1020.4
20260508162239 60 299 0.0 1.0 0.00 0.00 0.00 54 1020.5
20260508160739 58 321 0.0 1.0 0.00 0.00 0.00 58 1020.6
20260508160633 58 275 0.0 1.0 0.00 0.00 0.00 58 1020.7
20260508154448 56 285 0.0 1.0 0.00 0.00 0.00 59 1020.7
20260508152239 56 272 0.0 1.0 0.00 0.00 0.00 61 1020.7
20260508150738 56 276 0.0 1.0 0.00 0.00 0.00 60 1020.8
20260508145235 54 276 0.0 1.0 0.00 0.00 0.00 63 1020.8
20260508143735 53 157 0.0 0.0 0.00 0.00 0.00 65 1020.8
20260508142236 51 156 0.0 0.0 0.00 0.00 0.00 71 1020.5
20260508140735 49 157 0.0 0.0 0.00 0.00 0.00 73 1020.2
20260508135235 48 157 0.0 0.0 0.00 0.00 0.00 75 1020.0
20260508133735 47 156 0.0 0.0 0.00 0.00 0.00 76 1019.9
20260508132232 47 156 0.0 0.0 0.00 0.00 0.00 75 1019.7
20260508130729 48 156 0.0 0.0 0.00 0.00 0.00 74 1019.5
20260508125927 48 156 0.0 0.0 0.00 0.00 0.00 73 1019.5
20260508123729 48 157 0.0 0.0 0.00 0.00 0.00 72 1019.2
20260508122227 49 156 0.0 0.0 0.00 0.00 0.00 72 1019.2
20260508120728 49 156 0.0 0.0 0.00 0.00 0.00 71 1019.2
20260508115226 49 157 0.0 0.0 0.00 0.00 0.00 71 1019.2
20260508113728 49 156 0.0 0.0 0.00 0.00 0.00 71 1019.0
20260508112227 49 156 0.0 0.0 0.00 0.00 0.00 70 1018.8
20260508110727 49 156 0.0 0.0 0.00 0.00 0.00 70 1018.6
20260508105227 49 157 0.0 0.0 0.00 0.00 0.00 69 1018.5
20260508103727 50 156 0.0 1.0 0.00 0.00 0.00 68 1018.5
20260508102227 51 157 0.0 0.0 0.00 0.00 0.00 66 1018.5
20260508101432 51 158 0.0 0.0 0.00 0.00 0.00 65 1018.3
20260508095222 51 158 0.0 0.0 0.00 0.00 0.00 65 1018.2
20260508093720 52 157 0.0 0.0 0.00 0.00 0.00 64 1018.2
20260508092914 52 158 0.0 0.0 0.00 0.00 0.00 64 1018.1
20260508090716 53 158 0.0 0.0 0.00 0.00 0.00 63 1018.0
20260508085214 53 158 0.0 0.0 0.00 0.00 0.00 62 1017.8
20260508083709 54 158 0.0 0.0 0.00 0.00 0.00 60 1017.6
20260508083606 55 158 0.0 0.0 0.00 0.00 0.00 59 1017.5
20260508080710 55 157 0.0 0.0 0.00 0.00 0.00 58 1017.5
20260508075208 56 159 0.0 1.0 0.00 0.00 0.00 56 1017.6
20260508073712 57 133 0.0 0.0 0.00 0.00 0.00 54 1017.6
20260508072208 58 115 0.0 0.0 0.00 0.00 0.00 53 1017.5
20260508070708 59 115 0.0 0.0 0.00 0.00 0.00 51 1017.3
20260508065207 60 198 0.0 0.0 0.00 0.00 0.00 48 1017.3
20260508063708 61 197 0.0 0.0 0.00 0.00 0.00 46 1017.5
20260508062207 62 198 0.0 1.0 0.00 0.00 0.00 44 1017.5
20260508060707 62 199 0.0 0.0 0.00 0.00 0.00 42 1017.2
20260508055207 63 199 0.0 0.0 0.00 0.00 0.00 41 1017.0
20260508053705 65 199 0.0 0.0 0.00 0.00 0.00 38 1016.9
20260508052207 67 199 0.0 1.0 0.00 0.00 0.00 34 1016.7
20260508050703 69 206 0.0 0.0 0.00 0.00 0.00 31 1016.6
20260508045201 71 298 0.0 0.0 0.00 0.00 0.00 27 1016.4
20260508043659 72 254 0.0 1.0 0.00 0.00 0.00 25 1016.3
20260508042157 73 276 0.0 3.0 0.00 0.00 0.00 23 1016.1
20260508040655 74 278 0.0 9.0 0.00 0.00 0.00 22 1015.6
20260508035152 75 248 1.0 7.0 0.00 0.00 0.00 21 1015.4
20260508033651 76 276 0.0 2.0 0.00 0.00 0.00 25 1015.2
20260508032151 77 216 0.0 3.0 0.00 0.00 0.00 19 1014.8
20260508030648 78 231 0.0 2.0 0.00 0.00 0.00 17 1014.6
20260508025147 79 265 1.0 6.0 0.00 0.00 0.00 15 1014.5